sat.trackr.live / text

‹ back to catalog

STARLINK-36993

NORAD 67994 · 2026-039J

PAYLOAD ACTIVE UNKNOWN

§ Identity

Operator
Country
US
Launch date
2026-02-27
Launch site
AFETR
Launch vehicle
Mass (kg)
RCS (m²)

Purposes: comms

External: N2YO · Heavens-Above · Gunter

§ Orbital elements

Epoch: 2026-05-24T20:46:53.696064Z

Period
94.27 min
Inclination
43.0048°
Eccentricity
0.0001324
Mean motion
15.27585546 rev/d
Perigee alt
482.1 km
Apogee alt
483.9 km
Semi-major
6,861.2 km
B*
7.8195e-4
RAAN
338.7209°
Arg perigee
260.5395°
Mean anomaly
99.5307°
Rev number
1,335

§ Raw data

STARLINK-369931 67994U 26039J   26144.86589926  .00021321  00000+0  78195-3 0  99962 67994  43.0048 338.7209 0001324 260.5395  99.5307 15.27585546 13351

JSON: /api/v1/satellites/67994 · /tle

For live sub-satellite position, see the globe view (requires WebGL).

§ Visibility from observer

Set your observer location to see the next 7 days of passes ≥ 10°. The values pass through the URL so the page stays shareable.

No JS? Fill the form by hand. The geolocation button needs JavaScript.